星链-37761(STARLINK-37761)

导读

STARLINK-37761(NORAD编号69200)是SpaceX星链星座的组网卫星,星链是SpaceX开发的全球卫星互联网项目,旨在为全球提供低成本、高性能的宽带互联网服务。该卫星运行于近地轨道,属于星链大规模星座部署中的一颗,星链星座截至2026年3月已有超过9600颗卫星在轨,为全球164个国家超1030万订阅用户提供服务,STARLINK-37761作为星座成员,承担着全球网络覆盖,增强星座通信容量的作用,助力SpaceX实现全球无缝卫星互联网接入的目标。

基本信息
目录编号:
69200
目录名称:
STARLINK-37761
国际标识:
2026-114U
轨道中心:
EARTH
卫星名称:
星链-37761
卫星全名:
星链-37761(STARLINK-37761)
卫星状态:
在轨 (已飞行64 天)
发射日期:
2026-05-25 UTC
国别 :
美国 (US)
星等 :
--
轨道信息
数据来源 国际轨道数据
星历时间: 2026-07-27T20:02:26+0800
12小时前
查看轨道信息
半长轴: 6840.809km
偏心率: 0.000113
轨道倾角: 53.160°
近地点辐角 97.567°
升交点赤经 10.758°
平近点角 262.546°
近地点: 461.898km
远地点: 463.446km
周期: 93.847分钟
每日圈数: 15.344106
详细信息
固有亮度:
5
最大亮度:
2.5
卫星平台:
Starlink V1.0
覆盖范围:
全球
运营商:
太空探索技术公司
运营商所在国:
美国
制造商(研发单位):
太空探索技术公司
制造商所在国:
美国
使用方式:
暂无
卫星简介
Starlink 计划是 SpaceX 推出的全球卫星互联网项目,通过发射低轨道卫星,为全球尤其是偏远地区提供高速、低延迟的互联网服务。自 2019 年起,Starlink 已部署数千颗卫星,旨在缩小全球数字鸿沟,推动互联网普及。该项目还为军事、航空等行业提供通信支持,带来广泛经济效益。
2D轨道图
3D轨道图
轨道高度分析图
轨道倾角分析图
轨道综合分析图
查看轨道综合分析图